Location: Litvinovka
(48.6667°N, 34.3500°E)
Time: 19:23:21
(UTC+00:00)

NOSS 2-2 (D) - Pass Details

Date: 18 September 2020
Orbit: 462 x 1746 km, 63.3° (Epoch: 14 October)

Event Time Altitude Azimuth Distance (km) Brightness Sun altitude
Rises 17:33:07 0° 222° (SW) 2,482 6.9 -17.6°
Reaches altitude 10° 17:35:09 10° 223° (SW) 1,613 5.9 -17.9°
Maximum altitude 17:38:37 83° 313° (NW) 500 3.1 -18.4°
Drops below altitude 10° 17:42:35 10° 41° (NE) 1,849 5.8 -19.0°
Enters shadow 17:44:36 - 42° (NE) 2,706 6.7 -19.3°
